QPF
0.01 0.01 0.02 0.02 0.02 0.02 0.01 0.01 0.00 0.00 0.00 0.00 0.00 0.01 0.01 0.01 0.01 0.01 0.01 0.01 0.01 0.01 0.01 0.01 0.01 0.01 0.02 0.03 0.02 0.03 0.03 0.01 0.01 0.01 0.01 0.01 0.01 0.01 0.01 0.02 0.02 0.02 0.02 0.03
0.01 0.01 0.00 0.00 0.02 0.03 0.03 0.02 0.01 0.00 0.00 0.00 0.01 0.01 0.01 0.01 0.01 0.01 0.01 0.01 0.01 0.01 0.01 0.01 0.01 0.00 0.01 0.02 0.02 0.02 0.04 0.03 0.02 0.01 0.01 0.01 0.01 0.01 0.01 0.01 0.02 0.02 0.02 0.03
0.01 0.01 0.00 0.01 0.01 0.02 0.03 0.03 0.02 0.01 0.01 0.01 0.01 0.01 0.01 0.01 0.00 0.00 0.00 0.00 0.00 0.01 0.01 0.01 0.00 0.00 0.00 0.01 0.01 0.02 0.03 0.04 0.03 0.02 0.02 0.01 0.01 0.01 0.01 0.01 0.02 0.02 0.02 0.02
0.01 0.01 0.00 0.01 0.01 0.01 0.02 0.02 0.03 0.02 0.02 0.01 0.01 0.01 0.01 0.00 0.00 0.00 0.00 0.00 0.00 0.00 0.00 0.01 0.01 0.01 0.01 0.01 0.01 0.02 0.02 0.05 0.06 0.04 0.03 0.02 0.01 0.01 0.01 0.01 0.02 0.02 0.02 0.01
0.01 0.00 0.00 0.01 0.01 0.01 0.01 0.02 0.02 0.02 0.02 0.02 0.01 0.01 0.00 0.00 0.00 0.00 0.00 0.00 0.00 0.00 0.00 0.00 0.00 0.00 0.00 0.01 0.01 0.01 0.02 0.03 0.05 0.06 0.04 0.03 0.02 0.02 0.01 0.01 0.02 0.02 0.02 0.02
0.01 0.01 0.01 0.01 0.01 0.01 0.02 0.02 0.03 0.04 0.03 0.03 0.01 0.00 0.00 0.00 0.00 0.00 0.00 0.00 0.00 0.00 0.00 0.00 0.00 0.00 0.00 0.00 0.01 0.01 0.02 0.03 0.03 0.05 0.05 0.04 0.04 0.04 0.04 0.02 0.02 0.02 0.03 0.03
0.01 0.01 0.00 0.00 0.01 0.01 0.02 0.03 0.03 0.03 0.03 0.01 0.00 0.00 0.00 0.00 0.00 0.00 0.00 0.00 0.00 0.00 0.00 0.00 0.00 0.00 0.00 0.00 0.00 0.01 0.01 0.02 0.03 0.04 0.06 0.06 0.06 0.05 0.06 0.06 0.04 0.03 0.04 0.04
0.01 0.01 0.00 0.00 0.01 0.01 0.01 0.02 0.02 0.02 0.01 0.01 0.01 0.00 0.00 0.00 0.00 0.00 0.00 0.00 0.00 0.00 0.00 0.00 0.00 0.00 0.00 0.00 0.01 0.01 0.01 0.01 0.02 0.03 0.04 0.06 0.06 0.08 0.10 0.11 0.10 0.08 0.06 0.06
0.02 0.01 0.00 0.00 0.00 0.01 0.02 0.02 0.01 0.03 0.02 0.01 0.00 0.00 0.00 0.00 0.00 0.00 0.00 0.00 0.00 0.00 0.00 0.00 0.00 0.00 0.00 0.00 0.01 0.01 0.01 0.01 0.02 0.02 0.02 0.03 0.05 0.06 0.08 0.10 0.12 0.11 0.09 0.08
0.02 0.03 0.01 0.00 0.00 0.00 0.01 0.01 0.02 0.03 0.03 0.01 0.00 0.00 0.00 0.00 0.00 0.00 0.00 0.01 0.01 0.00 0.00 0.00 0.00 0.00 0.00 0.00 0.00 0.00 0.01 0.01 0.02 0.02 0.02 0.02 0.03 0.04 0.06 0.08 0.10 0.11 0.10 0.08
0.02 0.03 0.02 0.01 0.00 0.00 0.01 0.01 0.02 0.02 0.03 0.02 0.01 0.01 0.01 0.01 0.01 0.01 0.01 0.01 0.00 0.00 0.00 0.00 0.00 0.00 0.00 0.00 0.00 0.00 0.01 0.01 0.01 0.02 0.02 0.03 0.03 0.03 0.04 0.06 0.07 0.08 0.10 0.10
0.02 0.04 0.03 0.01 0.00 0.00 0.01 0.01 0.01 0.03 0.02 0.02 0.02 0.01 0.01 0.01 0.01 0.01 0.01 0.00 0.00 0.00 0.00 0.00 0.00 0.00 0.00 0.00 0.00 0.00 0.01 0.01 0.01 0.01 0.02 0.03 0.03 0.04 0.03 0.04 0.06 0.06 0.07 0.10
0.03 0.04 0.04 0.02 0.01 0.00 0.01 0.01 0.01 0.02 0.03 0.03 0.02 0.01 0.01 0.00 0.01 0.01 0.01 0.00 0.00 0.00 0.00 0.00 0.00 0.00 0.00 0.00 0.00 0.00 0.00 0.01 0.01 0.01 0.02 0.03 0.04 0.05 0.05 0.04 0.04 0.05 0.06 0.07
0.04 0.04 0.03 0.02 0.01 0.01 0.01 0.01 0.01 0.03 0.04 0.02 0.01 0.00 0.01 0.01 0.01 0.01 0.00 0.00 0.00 0.00 0.00 0.00 0.00 0.00 0.00 0.00 0.00 0.00 0.00 0.01 0.01 0.01 0.01 0.01 0.02 0.04 0.05 0.05 0.05 0.05 0.05 0.06
0.03 0.04 0.02 0.01 0.01 0.01 0.01 0.01 0.01 0.02 0.01 0.01 0.01 0.01 0.01 0.01 0.01 0.01 0.00 0.00 0.00 0.00 0.00 0.00 0.00 0.00 0.00 0.01 0.01 0.01 0.01 0.01 0.01 0.01 0.01 0.01 0.01 0.02 0.03 0.03 0.04 0.05 0.05 0.06
0.03 0.03 0.02 0.02 0.01 0.01 0.01 0.01 0.01 0.01 0.01 0.01 0.01 0.02 0.02 0.01 0.01 0.01 0.00 0.00 0.00 0.00 0.00 0.00 0.00 0.00 0.01 0.01 0.01 0.01 0.01 0.01 0.01 0.01 0.01 0.01 0.02 0.02 0.02 0.02 0.02 0.03 0.05 0.05
0.04 0.04 0.04 0.03 0.01 0.02 0.02 0.01 0.01 0.01 0.01 0.01 0.01 0.02 0.01 0.01 0.01 0.00 0.00 0.00 0.00 0.00 0.00 0.00 0.00 0.01 0.01 0.01 0.01 0.01 0.01 0.01 0.01 0.01 0.02 0.01 0.01 0.02 0.02 0.02 0.01 0.02 0.03 0.04
0.04 0.04 0.05 0.04 0.02 0.03 0.01 0.01 0.00 0.01 0.01 0.00 0.01 0.01 0.01 0.01 0.01 0.00 0.00 0.00 0.00 0.00 0.00 0.00 0.01 0.01 0.01 0.01 0.01 0.01 0.01 0.01 0.02 0.02 0.02 0.02 0.02 0.02 0.02 0.02 0.02 0.02 0.02 0.03
0.03 0.04 0.06 0.05 0.03 0.02 0.01 0.00 0.00 0.01 0.01 0.00 0.00 0.00 0.00 0.00 0.00 0.00 0.00 0.00 0.00 0.00 0.00 0.00 0.01 0.01 0.01 0.01 0.01 0.01 0.01 0.02 0.02 0.02 0.02 0.02 0.02 0.02 0.02 0.02 0.02 0.02 0.02 0.02
0.02 0.03 0.05 0.05 0.04 0.02 0.00 0.00 0.00 0.01 0.01 0.00 0.00 0.00 0.00 0.00 0.00 0.00 0.00 0.00 0.00 0.00 0.01 0.01 0.01 0.01 0.01 0.02 0.01 0.01 0.01 0.02 0.02 0.02 0.01 0.02 0.02 0.02 0.02 0.02 0.02 0.03 0.03 0.02
0.02 0.04 0.04 0.03 0.03 0.01 0.01 0.00 0.01 0.01 0.01 0.00 0.00 0.00 0.00 0.00 0.01 0.01 0.01 0.01 0.01 0.01 0.01 0.01 0.02 0.02 0.02 0.02 0.02 0.02 0.01 0.01 0.02 0.02 0.01 0.01 0.02 0.02 0.02 0.02 0.02 0.03 0.03 0.03
0.01 0.03 0.03 0.03 0.04 0.02 0.01 0.01 0.01 0.01 0.01 0.00 0.00 0.01 0.01 0.01 0.01 0.01 0.01 0.01 0.01 0.01 0.01 0.02 0.02 0.02 0.02 0.02 0.02 0.01 0.01 0.01 0.02 0.03 0.03 0.02 0.02 0.02 0.03 0.03 0.03 0.03 0.04 0.04
0.01 0.02 0.03 0.03 0.03 0.02 0.02 0.02 0.02 0.01 0.01 0.01 0.01 0.01 0.01 0.01 0.01 0.01 0.01 0.01 0.01 0.01 0.01 0.02 0.02 0.03 0.02 0.02 0.02 0.02 0.01 0.01 0.01 0.03 0.05 0.05 0.04 0.04 0.04 0.04 0.04 0.03 0.04 0.05
0.01 0.01 0.02 0.02 0.01 0.01 0.01 0.01 0.01 0.01 0.01 0.01 0.01 0.02 0.02 0.01 0.01 0.01 0.01 0.01 0.01 0.01 0.02 0.02 0.02 0.02 0.03 0.02 0.02 0.02 0.02 0.01 0.01 0.02 0.04 0.06 0.06 0.06 0.05 0.05 0.05 0.04 0.04 0.04
0.01 0.02 0.02 0.02 0.01 0.01 0.01 0.01 0.01 0.01 0.02 0.02 0.01 0.01 0.01 0.02 0.02 0.02 0.01 0.01 0.02 0.02 0.02 0.02 0.02 0.02 0.02 0.03 0.03 0.03 0.02 0.02 0.02 0.03 0.03 0.05 0.06 0.06 0.06 0.06 0.06 0.06 0.04 0.04
0.02 0.03 0.04 0.02 0.01 0.02 0.02 0.02 0.02 0.02 0.02 0.02 0.02 0.01 0.01 0.01 0.02 0.02 0.02 0.02 0.02 0.02 0.02 0.02 0.02 0.02 0.02 0.03 0.03 0.03 0.03 0.02 0.02 0.02 0.03 0.04 0.05 0.06 0.06 0.06 0.06 0.07 0.06 0.05
MSLP
1016.65 1016.94 1017.16 1017.30 1017.36 1017.38 1017.38 1017.39 1017.46 1017.60 1017.83 1018.17 1018.63 1019.22 1019.92 1020.74 1021.67 1022.68 1023.76 1024.87 1025.95 1026.98 1027.90 1028.66 1029.25 1029.66 1029.89 1029.98 1029.98 1029.93 1029.89 1029.91 1030.00 1030.19 1030.45 1030.74 1031.04 1031.30 1031.48 1031.57 1031.56 1031.48 1031.33 1031.16
1016.68 1016.89 1017.00 1017.02 1016.96 1016.87 1016.80 1016.79 1016.88 1017.10 1017.47 1018.00 1018.66 1019.45 1020.34 1021.32 1022.36 1023.43 1024.52 1025.60 1026.64 1027.59 1028.43 1029.13 1029.66 1030.02 1030.22 1030.29 1030.27 1030.22 1030.17 1030.19 1030.30 1030.49 1030.76 1031.08 1031.40 1031.67 1031.87 1031.97 1031.96 1031.86 1031.70 1031.52
1016.70 1016.81 1016.82 1016.73 1016.56 1016.38 1016.25 1016.23 1016.37 1016.70 1017.22 1017.93 1018.81 1019.80 1020.87 1021.99 1023.11 1024.22 1025.29 1026.30 1027.24 1028.10 1028.83 1029.44 1029.91 1030.23 1030.42 1030.49 1030.49 1030.45 1030.43 1030.46 1030.58 1030.78 1031.05 1031.37 1031.68 1031.96 1032.16 1032.25 1032.25 1032.14 1031.98 1031.78
1016.74 1016.78 1016.70 1016.50 1016.25 1016.00 1015.83 1015.82 1016.02 1016.46 1017.14 1018.04 1019.11 1020.29 1021.53 1022.76 1023.94 1025.05 1026.06 1026.97 1027.78 1028.50 1029.12 1029.63 1030.03 1030.33 1030.51 1030.61 1030.65 1030.66 1030.67 1030.73 1030.85 1031.05 1031.30 1031.60 1031.90 1032.15 1032.34 1032.43 1032.42 1032.31 1032.15 1031.95
1016.87 1016.84 1016.68 1016.41 1016.08 1015.78 1015.59 1015.60 1015.86 1016.41 1017.24 1018.31 1019.56 1020.92 1022.29 1023.61 1024.82 1025.90 1026.83 1027.62 1028.29 1028.86 1029.35 1029.76 1030.10 1030.37 1030.57 1030.71 1030.80 1030.86 1030.92 1031.00 1031.13 1031.31 1031.53 1031.78 1032.04 1032.26 1032.42 1032.50 1032.49 1032.39 1032.23 1032.03
1017.09 1017.01 1016.79 1016.45 1016.08 1015.74 1015.54 1015.57 1015.89 1016.54 1017.50 1018.72 1020.12 1021.62 1023.10 1024.49 1025.72 1026.76 1027.61 1028.28 1028.81 1029.24 1029.60 1029.91 1030.19 1030.44 1030.66 1030.84 1030.98 1031.09 1031.19 1031.28 1031.40 1031.55 1031.73 1031.93 1032.13 1032.31 1032.44 1032.50 1032.49 1032.40 1032.25 1032.07
1017.40 1017.28 1017.01 1016.63 1016.21 1015.84 1015.63 1015.68 1016.06 1016.78 1017.85 1019.19 1020.72 1022.34 1023.92 1025.37 1026.61 1027.62 1028.40 1028.97 1029.38 1029.68 1029.93 1030.15 1030.38 1030.61 1030.83 1031.03 1031.21 1031.35 1031.46 1031.56 1031.65 1031.76 1031.88 1032.02 1032.17 1032.30 1032.41 1032.46 1032.46 1032.38 1032.25 1032.09
1017.79 1017.63 1017.32 1016.90 1016.45 1016.06 1015.84 1015.90 1016.31 1017.09 1018.23 1019.67 1021.30 1023.01 1024.68 1026.18 1027.46 1028.46 1029.20 1029.70 1030.03 1030.24 1030.39 1030.54 1030.71 1030.90 1031.11 1031.31 1031.49 1031.63 1031.74 1031.81 1031.86 1031.91 1031.97 1032.05 1032.14 1032.25 1032.33 1032.38 1032.39 1032.34 1032.24 1032.09
1018.23 1018.04 1017.70 1017.25 1016.77 1016.36 1016.13 1016.19 1016.62 1017.43 1018.62 1020.12 1021.82 1023.61 1025.35 1026.91 1028.23 1029.26 1029.99 1030.47 1030.75 1030.90 1030.99 1031.08 1031.19 1031.33 1031.50 1031.66 1031.81 1031.91 1031.97 1031.99 1031.98 1031.97 1031.97 1032.00 1032.05 1032.12 1032.19 1032.25 1032.28 1032.26 1032.18 1032.06
1018.71 1018.50 1018.14 1017.67 1017.17 1016.74 1016.51 1016.56 1016.98 1017.81 1019.02 1020.55 1022.29 1024.13 1025.93 1027.56 1028.93 1030.01 1030.77 1031.27 1031.54 1031.67 1031.72 1031.75 1031.80 1031.88 1031.97 1032.07 1032.14 1032.17 1032.16 1032.10 1032.02 1031.94 1031.87 1031.84 1031.86 1031.91 1031.98 1032.05 1032.09 1032.09 1032.05 1031.95
1019.23 1019.01 1018.64 1018.17 1017.67 1017.24 1016.99 1017.04 1017.46 1018.27 1019.48 1021.01 1022.77 1024.63 1026.46 1028.14 1029.58 1030.71 1031.53 1032.06 1032.36 1032.49 1032.53 1032.51 1032.50 1032.50 1032.50 1032.50 1032.47 1032.39 1032.28 1032.13 1031.95 1031.79 1031.66 1031.58 1031.56 1031.59 1031.66 1031.73 1031.79 1031.81 1031.79 1031.71
1019.81 1019.59 1019.23 1018.78 1018.29 1017.88 1017.65 1017.69 1018.10 1018.89 1020.07 1021.57 1023.31 1025.17 1027.01 1028.72 1030.19 1031.38 1032.25 1032.84 1033.18 1033.32 1033.35 1033.30 1033.23 1033.14 1033.04 1032.92 1032.77 1032.58 1032.35 1032.09 1031.83 1031.58 1031.39 1031.26 1031.19 1031.20 1031.25 1031.31 1031.37 1031.39 1031.37 1031.30
1020.44 1020.25 1019.92 1019.51 1019.07 1018.70 1018.50 1018.56 1018.96 1019.73 1020.87 1022.32 1024.01 1025.82 1027.63 1029.33 1030.82 1032.03 1032.94 1033.57 1033.94 1034.11 1034.14 1034.06 1033.93 1033.76 1033.56 1033.33 1033.06 1032.75 1032.41 1032.04 1031.68 1031.36 1031.09 1030.90 1030.79 1030.75 1030.77 1030.81 1030.84 1030.85 1030.81 1030.73
1021.11 1020.96 1020.70 1020.36 1020.00 1019.70 1019.56 1019.66 1020.07 1020.82 1021.91 1023.30 1024.91 1026.64 1028.38 1030.03 1031.48 1032.68 1033.60 1034.25 1034.64 1034.82 1034.84 1034.74 1034.57 1034.33 1034.05 1033.72 1033.35 1032.93 1032.49 1032.03 1031.58 1031.18 1030.84 1030.59 1030.41 1030.32 1030.28 1030.27 1030.25 1030.22 1030.15 1030.04
1021.79 1021.70 1021.53 1021.29 1021.04 1020.85 1020.81 1020.97 1021.42 1022.16 1023.21 1024.52 1026.03 1027.65 1029.28 1030.83 1032.20 1033.35 1034.23 1034.86 1035.24 1035.42 1035.43 1035.31 1035.10 1034.82 1034.48 1034.08 1033.63 1033.14 1032.62 1032.09 1031.58 1031.10 1030.70 1030.37 1030.12 1029.95 1029.84 1029.75 1029.67 1029.58 1029.46 1029.31
1022.43 1022.43 1022.35 1022.24 1022.13 1022.09 1022.17 1022.43 1022.94 1023.70 1024.71 1025.94 1027.34 1028.83 1030.32 1031.73 1032.98 1034.02 1034.83 1035.40 1035.75 1035.90 1035.89 1035.75 1035.52 1035.22 1034.84 1034.41 1033.92 1033.39 1032.83 1032.25 1031.69 1031.16 1030.68 1030.28 1029.96 1029.70 1029.50 1029.33 1029.16 1029.00 1028.81 1028.61
1023.00 1023.08 1023.12 1023.16 1023.21 1023.33 1023.57 1023.96 1024.54 1025.34 1026.33 1027.49 1028.78 1030.12 1031.44 1032.68 1033.78 1034.68 1035.37 1035.86 1036.14 1036.25 1036.21 1036.06 1035.82 1035.51 1035.13 1034.70 1034.21 1033.67 1033.09 1032.50 1031.90 1031.33 1030.80 1030.34 1029.93 1029.58 1029.29 1029.02 1028.78 1028.53 1028.28 1028.02
1023.47 1023.63 1023.80 1023.99 1024.22 1024.52 1024.92 1025.46 1026.14 1026.98 1027.97 1029.07 1030.24 1031.43 1032.59 1033.64 1034.56 1035.30 1035.85 1036.22 1036.41 1036.46 1036.39 1036.23 1035.99 1035.69 1035.33 1034.92 1034.45 1033.94 1033.38 1032.79 1032.18 1031.59 1031.02 1030.50 1030.02 1029.59 1029.21 1028.85 1028.52 1028.20 1027.88 1027.57
1023.85 1024.10 1024.39 1024.73 1025.13 1025.62 1026.19 1026.87 1027.66 1028.55 1029.53 1030.57 1031.64 1032.68 1033.66 1034.53 1035.26 1035.83 1036.23 1036.47 1036.57 1036.56 1036.45 1036.27 1036.04 1035.76 1035.43 1035.06 1034.64 1034.16 1033.63 1033.07 1032.47 1031.87 1031.28 1030.71 1030.17 1029.67 1029.21 1028.78 1028.37 1027.97 1027.60 1027.23
1024.19 1024.52 1024.93 1025.42 1025.98 1026.63 1027.35 1028.16 1029.03 1029.97 1030.94 1031.92 1032.88 1033.78 1034.59 1035.28 1035.83 1036.23 1036.49 1036.61 1036.62 1036.54 1036.39 1036.20 1035.98 1035.72 1035.44 1035.11 1034.73 1034.30 1033.82 1033.28 1032.71 1032.10 1031.50 1030.89 1030.31 1029.75 1029.23 1028.73 1028.26 1027.81 1027.38 1026.97
1024.58 1024.99 1025.50 1026.11 1026.81 1027.59 1028.43 1029.33 1030.26 1031.20 1032.14 1033.05 1033.90 1034.66 1035.32 1035.84 1036.23 1036.49 1036.62 1036.63 1036.56 1036.43 1036.26 1036.06 1035.84 1035.61 1035.35 1035.07 1034.74 1034.35 1033.90 1033.40 1032.84 1032.24 1031.63 1031.00 1030.38 1029.78 1029.21 1028.66 1028.14 1027.64 1027.16 1026.71
1025.08 1025.57 1026.18 1026.89 1027.69 1028.55 1029.46 1030.40 1031.33 1032.25 1033.12 1033.93 1034.66 1035.29 1035.80 1036.19 1036.44 1036.58 1036.61 1036.55 1036.42 1036.26 1036.06 1035.86 1035.65 1035.44 1035.21 1034.96 1034.66 1034.30 1033.88 1033.40 1032.86 1032.26 1031.64 1030.99 1030.35 1029.71 1029.10 1028.51 1027.95 1027.41 1026.89 1026.39
1025.76 1026.33 1027.02 1027.80 1028.65 1029.55 1030.47 1031.38 1032.27 1033.11 1033.88 1034.57 1035.17 1035.66 1036.05 1036.32 1036.47 1036.52 1036.49 1036.38 1036.23 1036.05 1035.85 1035.66 1035.46 1035.26 1035.05 1034.81 1034.52 1034.18 1033.77 1033.30 1032.76 1032.16 1031.52 1030.86 1030.19 1029.53 1028.88 1028.26 1027.66 1027.08 1026.52 1025.97
1026.63 1027.27 1028.02 1028.84 1029.70 1030.58 1031.46 1032.29 1033.07 1033.79 1034.42 1034.98 1035.44 1035.81 1036.08 1036.26 1036.34 1036.35 1036.29 1036.17 1036.02 1035.84 1035.66 1035.47 1035.28 1035.09 1034.88 1034.64 1034.35 1034.01 1033.59 1033.11 1032.57 1031.96 1031.31 1030.63 1029.94 1029.25 1028.57 1027.91 1027.27 1026.65 1026.05 1025.47
1027.66 1028.36 1029.14 1029.96 1030.79 1031.61 1032.38 1033.09 1033.73 1034.29 1034.77 1035.18 1035.51 1035.76 1035.95 1036.06 1036.12 1036.11 1036.06 1035.96 1035.83 1035.68 1035.51 1035.34 1035.15 1034.95 1034.73 1034.47 1034.16 1033.80 1033.37 1032.87 1032.31 1031.69 1031.02 1030.33 1029.62 1028.91 1028.20 1027.51 1026.83 1026.17 1025.53 1024.90
1028.76 1029.49 1030.27 1031.06 1031.83 1032.54 1033.18 1033.74 1034.22 1034.62 1034.95 1035.21 1035.42 1035.59 1035.72 1035.81 1035.86 1035.87 1035.84 1035.78 1035.69 1035.57 1035.42 1035.26 1035.06 1034.85 1034.59 1034.30 1033.96 1033.57 1033.11 1032.59 1032.01 1031.38 1030.70 1030.00 1029.27 1028.54 1027.82 1027.10 1026.39 1025.69 1025.00 1024.33
Thickness
5557 5548 5545 5547 5547 5551 5548 5546 5546 5551 5553 5547 5547 5550 5554 5552 5549 5548 5545 5543 5543 5543 5543 5541 5539 5538 5537 5536 5536 5536 5536 5536 5537 5537 5538 5538 5539 5540 5542 5543 5545 5547 5549 5551
5541 5539 5546 5546 5544 5542 5539 5536 5535 5539 5541 5538 5533 5538 5544 5543 5542 5543 5541 5539 5537 5534 5532 5531 5528 5527 5526 5526 5525 5525 5525 5526 5526 5526 5527 5527 5527 5528 5529 5531 5532 5534 5536 5539
5536 5538 5541 5538 5533 5531 5529 5526 5527 5525 5525 5523 5520 5526 5533 5533 5534 5534 5533 5531 5529 5527 5524 5522 5519 5516 5515 5515 5515 5515 5514 5514 5514 5515 5514 5514 5514 5515 5516 5518 5519 5521 5523 5525
5525 5529 5530 5527 5524 5522 5519 5521 5519 5516 5507 5501 5506 5505 5524 5523 5522 5524 5522 5519 5518 5517 5515 5512 5509 5506 5505 5504 5504 5504 5504 5503 5503 5503 5502 5502 5503 5503 5504 5506 5507 5508 5510 5512
5517 5520 5519 5517 5517 5515 5511 5511 5508 5504 5496 5488 5488 5485 5506 5508 5513 5516 5513 5511 5509 5507 5505 5502 5499 5497 5495 5493 5492 5492 5492 5491 5491 5491 5491 5491 5491 5491 5492 5493 5494 5496 5497 5499
5510 5511 5510 5509 5508 5506 5502 5497 5491 5482 5478 5482 5487 5477 5492 5497 5506 5509 5506 5502 5499 5495 5493 5491 5488 5485 5483 5481 5479 5479 5479 5479 5478 5477 5478 5479 5479 5478 5478 5479 5480 5482 5484 5486
5499 5500 5500 5500 5496 5493 5489 5480 5474 5471 5468 5478 5481 5473 5483 5494 5494 5496 5495 5490 5486 5483 5480 5477 5474 5472 5469 5468 5467 5467 5467 5466 5466 5466 5466 5466 5466 5466 5466 5467 5468 5468 5470 5472
5485 5488 5490 5489 5487 5482 5478 5475 5468 5465 5463 5466 5468 5464 5479 5482 5481 5481 5480 5476 5472 5468 5466 5464 5461 5459 5457 5455 5455 5454 5454 5454 5454 5453 5453 5453 5454 5454 5454 5455 5455 5456 5457 5459
5474 5479 5482 5480 5479 5476 5469 5462 5463 5450 5443 5442 5453 5454 5467 5473 5470 5467 5465 5461 5457 5454 5452 5450 5448 5446 5444 5443 5442 5442 5442 5442 5441 5441 5440 5440 5440 5441 5442 5442 5442 5443 5444 5446
5469 5463 5466 5465 5467 5465 5462 5455 5443 5441 5442 5441 5447 5447 5460 5463 5462 5458 5452 5447 5444 5441 5438 5437 5435 5433 5431 5430 5429 5429 5429 5429 5429 5428 5428 5428 5428 5429 5429 5429 5430 5430 5431 5433
5460 5452 5451 5450 5450 5453 5447 5444 5440 5431 5428 5430 5430 5451 5458 5455 5453 5448 5443 5437 5432 5427 5424 5422 5421 5420 5418 5417 5416 5416 5415 5415 5415 5415 5415 5415 5415 5416 5416 5416 5417 5417 5418 5418
5450 5439 5435 5439 5441 5441 5440 5438 5430 5429 5423 5413 5418 5440 5449 5441 5439 5434 5430 5425 5420 5416 5412 5410 5407 5405 5405 5404 5403 5403 5403 5402 5401 5401 5402 5402 5402 5402 5403 5403 5403 5403 5404 5405
5441 5430 5428 5436 5433 5425 5424 5425 5423 5418 5412 5403 5408 5432 5434 5426 5423 5420 5415 5410 5406 5403 5400 5397 5395 5393 5392 5391 5390 5390 5389 5389 5389 5388 5388 5389 5389 5388 5389 5389 5389 5389 5390 5391
5438 5424 5425 5436 5439 5423 5416 5415 5411 5407 5403 5401 5410 5424 5426 5418 5412 5407 5401 5397 5393 5390 5388 5385 5383 5381 5380 5379 5378 5377 5376 5376 5376 5375 5375 5375 5375 5375 5375 5375 5376 5376 5376 5377
5425 5416 5412 5416 5419 5414 5414 5413 5406 5402 5404 5405 5414 5411 5420 5413 5403 5397 5389 5384 5382 5380 5377 5375 5373 5371 5368 5367 5366 5365 5364 5363 5363 5363 5362 5362 5362 5363 5362 5362 5362 5362 5363 5363
5409 5404 5400 5403 5408 5403 5403 5407 5403 5398 5396 5395 5398 5403 5407 5397 5388 5381 5376 5374 5373 5371 5368 5365 5362 5360 5359 5357 5355 5353 5352 5351 5350 5350 5350 5350 5349 5349 5349 5349 5348 5349 5349 5349
5396 5392 5391 5393 5391 5391 5398 5403 5399 5391 5386 5387 5392 5398 5389 5382 5377 5372 5367 5364 5362 5360 5358 5355 5352 5350 5348 5345 5344 5342 5340 5339 5338 5338 5338 5337 5337 5337 5337 5336 5336 5336 5336 5336
5390 5385 5379 5376 5376 5382 5408 5395 5392 5386 5383 5377 5377 5378 5373 5371 5364 5358 5355 5352 5351 5348 5345 5343 5340 5338 5336 5334 5332 5330 5328 5326 5326 5326 5325 5325 5325 5325 5324 5323 5323 5322 5322 5322
5385 5381 5372 5368 5366 5380 5388 5385 5375 5372 5376 5371 5367 5365 5360 5353 5348 5348 5345 5341 5338 5335 5333 5330 5328 5325 5323 5321 5319 5317 5316 5314 5313 5313 5313 5313 5313 5312 5311 5310 5310 5310 5309 5309
5373 5371 5366 5361 5363 5372 5388 5373 5364 5363 5366 5364 5356 5353 5345 5342 5343 5347 5335 5329 5325 5322 5319 5317 5315 5312 5310 5308 5306 5304 5303 5302 5302 5302 5302 5301 5301 5300 5299 5298 5297 5297 5296 5296
5361 5357 5356 5354 5354 5366 5363 5354 5355 5358 5368 5349 5341 5338 5333 5331 5331 5325 5319 5315 5312 5309 5307 5305 5302 5299 5297 5295 5293 5291 5290 5289 5290 5289 5289 5288 5288 5287 5286 5285 5284 5283 5282 5282
5355 5347 5342 5343 5345 5360 5345 5341 5344 5348 5337 5332 5328 5324 5320 5316 5312 5308 5305 5302 5298 5295 5293 5292 5289 5286 5284 5282 5280 5279 5278 5277 5277 5276 5276 5275 5274 5274 5274 5272 5270 5269 5268 5267
5344 5345 5343 5343 5352 5341 5328 5329 5325 5322 5320 5319 5314 5311 5308 5303 5300 5297 5292 5288 5285 5282 5280 5277 5275 5273 5270 5268 5268 5266 5265 5265 5264 5263 5262 5261 5260 5260 5259 5258 5256 5255 5253 5253
5329 5324 5324 5322 5328 5322 5315 5313 5311 5308 5306 5305 5301 5297 5294 5290 5286 5282 5279 5276 5272 5269 5266 5263 5261 5259 5256 5255 5254 5253 5252 5252 5250 5249 5248 5248 5246 5245 5243 5243 5242 5241 5239 5238
5323 5312 5313 5312 5313 5307 5305 5302 5299 5295 5292 5290 5287 5284 5281 5277 5273 5269 5265 5262 5259 5257 5253 5250 5247 5246 5244 5242 5240 5240 5238 5238 5237 5235 5235 5233 5233 5231 5229 5228 5227 5227 5226 5226
5301 5300 5303 5314 5305 5299 5297 5292 5287 5283 5279 5277 5274 5270 5267 5263 5259 5255 5251 5248 5245 5242 5240 5237 5234 5233 5231 5229 5227 5226 5225 5224 5223 5222 5221 5220 5218 5216 5215 5214 5213 5212 5212 5214